Location: Asheville, NC
(35.6000°N, 82.5500°W)
Time: 11:56:56
(UTC-05:00)

Envisat - Pass Details

Date: 08 October 2017
Orbit: 764 x 766 km, 98.2° (Epoch: 14 December)

Event Time Altitude Azimuth Distance (km) Brightness Sun altitude
Exits shadow 20:41:30 29° 47° (NE) 1,371 4.0 -20.7°
Drops below altitude 10° 20:44:56 10° 9° (N) 2,307 5.5 -21.4°
Sets 20:47:27 0° 359° (N) 3,237 6.4 -21.9°
